[[{"header":{"parameterUnit":"m.s-1","parameterCategory":1,"la1":30.2991,"la2":30.254,"lo1":-89.0895,"lo2":-89.0444,"dy":0.0017,"dx":0.0017,"nx":28,"ny":28,"refTime":"2024-12-23T09:00:00:Z","depth":0,"parameterNumber":2,"parameterNumberName":"U-component_of_WINDS"},"data":[0,0,0,0,0,0,0,0,0,0,0,0,0,0,0,0,0,0,0,0,0,0,0,0,0,0,0,0,0,0,0,0,0,0,0,0,0,0,0,0,0,0,0,0,0,0,0,0,0,0,0,0,0,0,0,0,0,0,-5.5713,-5.5714,0,-5.5802,-5.5803,-5.5804,-5.5685,-5.5681,-5.5677,-5.5673,-5.5763,-5.5769,-5.5775,0,0,0,0,0,0,0,0,0,0,0,0,0,-5.5442,-5.5448,-5.5713,-5.5714,-5.5716,-5.5802,-5.5803,-5.5804,-5.5686,-5.5681,-5.5676,-5.5671,-5.5761,-5.5768,-5.5776,0,0,0,0,0,0,0,0,0,0,0,0,0,-5.5548,-5.545,-5.5713,-5.5667,-5.5664,-5.5801,-5.5803,-5.5804,-5.5687,-5.5681,-5.5674,-5.5668,-5.5758,-5.5768,-5.5777,-5.5964,0,0,-5.5806,-5.581,0,0,0,0,0,0,0,0,-5.5542,-5.5558,-5.5673,-5.567,-5.5667,-5.5726,-5.574,-5.5858,-5.5689,-5.5678,-5.5673,-5.5665,-5.5756,-5.5765,-5.5796,-5.5968,-5.5972,-5.5807,-5.5813,-5.5817,-5.582,0,0,0,0,0,0,0,-5.5535,-5.5554,-5.5748,-5.5674,-5.5671,-5.5642,-5.565,-5.5762,-5.5752,-5.5679,-5.567,-5.5682,-5.5753,-5.5787,-5.5797,-5.5974,-5.5807,-5.5815,-5.5821,-5.5825,-5.6304,-5.631,0,0,0,0,0,0,-5.5533,-5.5549,-5.5745,-5.5751,-5.5588,-5.5652,-5.5661,-5.5713,-5.575,-5.575,-5.5688,-5.5676,-5.5774,-5.5786,-5.58,-5.602,-5.5817,-5.5826,-5.5831,-5.6297,-5.6305,-5.6313,0,0,0,0,0,0,-5.5528,-5.5552,-5.5742,-5.5648,-5.5669,-5.5663,-5.5723,-5.5719,-5.5752,-5.5757,-5.5755,-5.5724,-5.5769,-5.5786,-5.5924,-5.6021,-5.583,-5.5839,-5.6289,-5.6299,-5.6309,-5.6463,0,0,0,0,0,0,-5.5521,-5.5551,-5.5622,-5.565,-5.5675,-5.5865,-5.573,-5.5725,-5.5769,-5.5755,-5.5791,-5.579,-5.5765,-5.591,-5.5934,-5.6031,-5.5846,-5.628,-5.6293,-5.6306,-5.6449,-5.6477,-5.6502,0,0,0,0,0,-5.5511,-5.5661,-5.5626,-5.565,-5.5763,-5.5871,-5.5885,-5.5853,-5.5778,-5.5848,-5.5852,-5.5789,-5.6008,-5.5926,-5.5951,-5.6053,-5.6273,-5.6289,-5.6305,-5.6437,-5.6472,-5.6501,0,0,0,0,0,0,-5.5644,-5.5664,-5.5625,-5.5789,-5.5829,-5.5851,-5.5939,-5.5891,-5.5954,-5.5938,-5.5896,-5.5905,-5.6052,-5.6066,-5.5974,-5.6235,-5.6128,-5.6149,-5.622,-5.6253,-5.6279,-5.6271,-5.5854,0,0,0,0,0,-5.5693,-5.5778,-5.5791,-5.5935,-5.5957,-5.5945,-5.5991,-5.5963,-5.6003,-5.6019,-5.6033,-5.6074,-5.6151,-5.6203,-5.6275,-5.6452,-5.6457,-5.6534,-5.6561,-5.6582,-5.66,-5.6694,-5.6728,-5.6364,-5.6364,-5.6364,0,0,-5.5793,-5.5815,-5.5871,-5.5962,-5.599,-5.6079,-5.596,-5.606,-5.6125,-5.6034,-5.6164,-5.6177,-5.622,-5.6378,-5.6448,-5.6394,-5.6703,-5.6602,-5.6619,-5.6626,-5.6713,-5.6748,-5.6778,-5.6375,-5.6373,-5.6371,0,0,-5.6021,-5.6048,-5.6169,-5.62,-5.6244,-5.6235,-5.6265,-5.6295,-5.6299,-5.6429,-5.6363,-5.6441,-5.6576,-5.6609,-5.6644,-5.6887,-5.6832,-5.6912,-5.7048,-5.714,-5.7168,-5.7194,-5.7279,-5.731,-5.6931,-5.6932,-5.6932,0,-5.6141,-5.6272,-5.6237,-5.6342,-5.6383,-5.6306,-5.6429,-5.6461,-5.6527,-5.6557,-5.6496,-5.6664,-5.6688,-5.6852,-5.6911,-5.6943,-5.6975,-5.6906,-5.7167,-5.7192,-5.7215,-5.7296,-5.7328,-5.6941,-5.694,-5.6939,-5.6938,0,-5.6416,-5.6509,-5.6602,-5.6667,-5.672,-5.6833,-5.6815,-5.6873,-5.6841,-5.684,-5.6973,-5.7,-5.7075,-5.7113,-5.7083,-5.7273,-5.7238,-5.7174,-5.7064,-5.726,-5.7334,-5.7365,-5.6954,-5.6951,-5.6948,-5.6946,0,0,-5.6727,-5.6773,-5.6808,-5.6836,-5.688,-5.6951,-5.7062,-5.7136,-5.7185,-5.7234,-5.7325,-5.7442,-5.7383,-5.7422,-5.7396,-5.7477,-5.7666,-5.7402,-5.7402,-5.7448,-5.7876,-5.7922,-5.7958,-5.7631,-5.7637,-5.7642,-5.7871,0,-5.6953,-5.7143,-5.7116,-5.7299,-5.7383,-5.7313,-5.7409,-5.7446,-5.7449,-5.7521,-5.7523,-5.7606,-5.7522,-5.7545,-5.7623,-5.7627,-5.7751,-5.7611,-5.7714,-5.7718,-5.7702,-5.7998,-5.8047,-5.8262,-5.7901,-5.7906,-5.7909,0,-5.7242,-5.7301,-5.7493,-5.7524,-5.7558,-5.7645,-5.7711,-5.7782,-5.7823,-5.7819,-5.7865,-5.7824,-5.7934,-5.7826,-5.7977,-5.7882,-5.7923,-5.7932,-5.7939,-5.7945,-5.7823,-5.8009,-5.833,-5.8361,-5.7955,-5.7952,-5.7948,0,-5.7446,-5.7575,-5.7705,-5.7733,-5.7773,-5.7835,-5.7855,-5.7891,-5.7937,-5.7996,-5.8025,-5.8096,-5.8134,-5.819,-5.817,-5.8093,-5.8325,-5.8215,-5.8323,-5.8324,-5.8372,-5.8369,-5.8702,-5.8404,-5.8404,-5.8403,-5.8403,0,-5.77,-5.7819,-5.7798,-5.7878,-5.801,-5.7978,-5.811,-5.8121,-5.8154,-5.8234,-5.8179,-5.8256,-5.8227,-5.8302,-5.8288,-5.8414,-5.8433,-5.8432,-5.8426,-5.8435,-5.8435,-5.8459,-5.8442,-5.8412,-5.841,-5.8408,-5.8407,0,-5.7949,-5.794,-5.8077,-5.8105,-5.8115,-5.8211,-5.8234,-5.831,-5.8308,-5.8412,-5.8434,-5.8432,-5.8519,-5.8505,-5.8601,-5.8591,-5.8748,-5.8726,-5.8734,-5.8728,-5.8836,-5.8825,-5.9193,-5.9239,-5.8915,-5.8918,-5.8921,0,-5.811,-5.82,-5.8238,-5.8288,-5.8312,-5.8395,-5.8442,-5.8416,-5.8468,-5.8523,-5.8592,-5.8673,-5.8736,-5.8878,-5.8885,-5.8958,-5.8935,-5.9059,-5.8945,-5.8952,-5.8934,-5.8927,-5.8935,-5.908,-5.9084,-5.9087,-5.909,0,-5.8395,-5.8386,-5.8457,-5.8527,-5.8586,-5.8639,-5.8687,-5.8732,-5.871,-5.8772,-5.8859,-5.8909,-5.9007,-5.9089,-5.9158,-5.9178,-5.913,-5.9126,-5.9155,-5.9163,-5.9163,-5.9162,-5.8792,-5.9117,-5.9114,-5.9112,-5.9111,-5.9109,-5.8602,-5.8679,-5.8718,-5.8799,-5.8833,-5.8879,-5.8951,-5.896,-5.9033,-5.911,-5.9091,-5.9191,-5.9231,-5.9319,-5.9347,-5.9424,-5.9378,-5.942,-5.943,-5.944,-5.9451,-5.9154,-5.9437,-5.9436,-5.9435,-5.9435,-5.9434,0,-5.8882,-5.8904,-5.8979,-5.9049,-5.9113,-5.9065,-5.9116,-5.9172,-5.926,-5.9302,-5.9367,-5.9468,-5.9547,-5.9562,-5.9637,-5.9696,-5.9676,-5.9716,-5.971,-5.9715,-5.949,-5.9456,-5.9731,-5.9731,-5.9731,-5.9731,-5.9731,-5.9731,-5.9035,-5.9161,-5.9158,-5.9301,-5.9323,-5.9419,-5.9453,-5.9496,-5.9529,-5.9645,-5.971,-5.972,-5.9751,-5.9828,-5.9899,-5.9901,-5.993,-5.9979,-5.9972,-5.9761,-5.9731,-5.9702,-5.9671,-5.9986,-5.9986,-6.0191,-6.0193,-6.0194]},{"header":{"parameterUnit":"m.s-1","parameterCategory":1,"la1":30.2991,"la2":30.254,"lo1":-89.0895,"lo2":-89.0444,"dy":0.0017,"dx":0.0017,"nx":28,"ny":28,"refTime":"2024-12-23T09:00:00:Z","depth":0,"parameterNumber":3,"parameterNumberName":"V-component_of_WINDS"},"data":[0,0,0,0,0,0,0,0,0,0,0,0,0,0,0,0,0,0,0,0,0,0,0,0,0,0,0,0,0,0,0,0,0,0,0,0,0,0,0,0,0,0,0,0,0,0,0,0,0,0,0,0,0,0,0,0,0,0,0.5856,0.5857,0,0.5904,0.5905,0.5905,0.5936,0.5937,0.5937,0.5937,0.5983,0.5983,0.5984,0,0,0,0,0,0,0,0,0,0,0,0,0,0.579,0.5791,0.5856,0.5857,0.5858,0.5904,0.5905,0.5905,0.5936,0.5937,0.5937,0.5937,0.5982,0.5983,0.5985,0,0,0,0,0,0,0,0,0,0,0,0,0,0.5826,0.5791,0.5856,0.5879,0.5881,0.5904,0.5905,0.5905,0.5936,0.5937,0.5937,0.5937,0.5982,0.5983,0.5985,0.5988,0,0,0.5989,0.599,0,0,0,0,0,0,0,0,0.5824,0.5828,0.5875,0.5877,0.588,0.5915,0.5898,0.5933,0.5936,0.5915,0.5937,0.5937,0.5959,0.5963,0.5971,0.599,0.5992,0.599,0.599,0.5991,0.5992,0,0,0,0,0,0,0,0.5821,0.5827,0.5875,0.5875,0.5879,0.5886,0.5891,0.5905,0.5935,0.5917,0.592,0.5925,0.5961,0.5969,0.5972,0.5992,0.5989,0.5991,0.5992,0.5992,0.6017,0.6017,0,0,0,0,0,0,0.5816,0.5824,0.5874,0.5877,0.5852,0.5887,0.5893,0.5903,0.5935,0.594,0.5925,0.5926,0.5967,0.597,0.5974,0.5981,0.5991,0.5992,0.5993,0.6018,0.6017,0.6017,0,0,0,0,0,0,0.5814,0.582,0.5872,0.5851,0.5858,0.5887,0.5899,0.5904,0.5913,0.5941,0.5946,0.5928,0.5967,0.5972,0.5985,0.5983,0.5993,0.5995,0.6018,0.6017,0.6017,0.5993,0,0,0,0,0,0,0.5812,0.5819,0.5821,0.5851,0.5859,0.5882,0.5899,0.5905,0.5916,0.5918,0.5945,0.595,0.5968,0.5982,0.5986,0.5985,0.5996,0.6018,0.6018,0.6017,0.5994,0.5992,0.599,0,0,0,0,0,0.581,0.5811,0.5821,0.5827,0.5862,0.5882,0.5887,0.5908,0.5915,0.5917,0.5935,0.5949,0.5982,0.5983,0.5988,0.5987,0.6018,0.6018,0.6017,0.5995,0.5992,0.599,0,0,0,0,0,0,0.5779,0.5816,0.5827,0.5838,0.5857,0.5887,0.589,0.5904,0.592,0.5922,0.5947,0.5953,0.5963,0.5976,0.5977,0.5992,0.6002,0.6002,0.5983,0.5981,0.5979,0.5976,0.5997,0,0,0,0,0,0.5774,0.5787,0.5818,0.5825,0.5835,0.5861,0.587,0.5885,0.5905,0.5913,0.5932,0.595,0.5964,0.5973,0.5988,0.5996,0.6003,0.5998,0.5996,0.5994,0.5994,0.6,0.5999,0.6015,0.6015,0.6015,0,0,0.5762,0.5784,0.5791,0.582,0.5836,0.5849,0.5867,0.588,0.589,0.5914,0.5928,0.5943,0.5964,0.5975,0.5981,0.5986,0.5991,0.5993,0.5991,0.5993,0.5999,0.5998,0.5996,0.6015,0.6015,0.6015,0,0,0.5749,0.5767,0.5776,0.5792,0.5817,0.5835,0.5837,0.5865,0.5876,0.5891,0.591,0.5921,0.5946,0.5961,0.5972,0.5965,0.5979,0.5969,0.5958,0.5964,0.5963,0.5962,0.596,0.596,0.5969,0.5969,0.5969,0,0.5732,0.5754,0.5778,0.5791,0.5803,0.5827,0.5836,0.585,0.5878,0.5885,0.5891,0.5924,0.594,0.5955,0.5954,0.5961,0.5964,0.5967,0.5961,0.5961,0.596,0.5959,0.5958,0.5968,0.5968,0.5968,0.5968,0,0.5732,0.5747,0.575,0.5779,0.5791,0.5801,0.5827,0.5836,0.5851,0.5867,0.5882,0.5902,0.5923,0.5927,0.594,0.5944,0.5947,0.5957,0.5967,0.5957,0.5956,0.5956,0.5966,0.5967,0.5967,0.5967,0,0,0.57,0.5743,0.5744,0.5758,0.5788,0.5799,0.581,0.5831,0.5839,0.5858,0.5868,0.5889,0.5899,0.5911,0.5926,0.5931,0.5926,0.594,0.5941,0.5937,0.5932,0.5925,0.5924,0.5935,0.5934,0.5934,0.5931,0,0.5692,0.5716,0.5738,0.5753,0.5768,0.5791,0.5801,0.582,0.5836,0.585,0.5867,0.5882,0.5893,0.5901,0.5907,0.5925,0.5925,0.5925,0.5944,0.5945,0.5939,0.5924,0.5916,0.5912,0.593,0.593,0.593,0,0.5686,0.5706,0.5722,0.5752,0.5759,0.5768,0.5789,0.5802,0.5824,0.5835,0.585,0.5866,0.5879,0.5888,0.5906,0.5906,0.5915,0.5925,0.5925,0.5928,0.5937,0.5927,0.5911,0.591,0.593,0.593,0.593,0,0.5663,0.5693,0.5707,0.5718,0.5752,0.5758,0.5773,0.5795,0.5807,0.5825,0.5833,0.5852,0.5862,0.5876,0.5897,0.5902,0.5913,0.5924,0.5923,0.5923,0.5925,0.5925,0.591,0.5929,0.5929,0.5929,0.5929,0,0.5652,0.5661,0.5697,0.5706,0.5718,0.5743,0.5753,0.577,0.579,0.5802,0.5823,0.5833,0.586,0.5874,0.589,0.5903,0.5907,0.5916,0.5921,0.5915,0.5914,0.5922,0.5923,0.5929,0.5929,0.5929,0.5929,0,0.5628,0.5652,0.567,0.5702,0.571,0.5717,0.5744,0.5753,0.5771,0.5786,0.5791,0.5818,0.5835,0.5858,0.5881,0.5892,0.5904,0.591,0.5897,0.5899,0.5898,0.5898,0.5889,0.5889,0.5907,0.5907,0.5906,0,0.562,0.5628,0.5661,0.5672,0.5686,0.5702,0.5714,0.574,0.5752,0.5778,0.5784,0.5803,0.582,0.5846,0.5868,0.5886,0.5893,0.5889,0.5896,0.5891,0.5894,0.5894,0.5895,0.5887,0.5887,0.5887,0.5886,0,0.5603,0.5615,0.5633,0.5655,0.567,0.5688,0.5707,0.5714,0.5743,0.5755,0.5774,0.5787,0.5813,0.5831,0.5853,0.5867,0.5881,0.5884,0.5885,0.588,0.5872,0.5877,0.5892,0.5884,0.5884,0.5884,0.5885,0.5885,0.5587,0.5596,0.5621,0.5641,0.5658,0.5676,0.5687,0.5706,0.5723,0.5747,0.576,0.5779,0.5801,0.5832,0.5845,0.5859,0.5865,0.5866,0.5866,0.5866,0.5865,0.5869,0.5863,0.5863,0.5863,0.5863,0.5863,0,0.5572,0.559,0.5608,0.5635,0.565,0.5664,0.5686,0.5697,0.5714,0.5734,0.5751,0.5773,0.5791,0.5814,0.5834,0.5842,0.5849,0.5846,0.5846,0.5849,0.5859,0.5856,0.584,0.584,0.584,0.584,0.584,0.584,0.5566,0.5583,0.5598,0.5623,0.564,0.566,0.5672,0.5688,0.5704,0.5728,0.5745,0.576,0.5782,0.5804,0.5821,0.5827,0.5834,0.5829,0.5838,0.5846,0.5848,0.585,0.5848,0.5831,0.583,0.5827,0.5827,0.5827]}]]